Time,TemperatureF,DewpointF,PressureIn,WindDirection,WindDirectionDegrees,WindSpeedMPH,WindSpeedGustMPH,Humidity,HourlyPrecipIn,Conditions,Clouds,dailyrainin,SoftwareType,DateUTC
2013-01-29 00:03:00,49.6,49.0,29.98,SSW,198,6.0,8.0,99,0.00,,,0.00,weatherlink.com 1.10,2013-01-29 05:03:00,
2013-01-29 00:18:00,50.1,50.0,29.98,SSW,206,8.0,11.0,99,0.00,,,0.00,weatherlink.com 1.10,2013-01-29 05:18:00,
2013-01-29 00:35:00,50.3,50.0,29.97,South,186,7.0,9.0,99,0.00,,,0.00,weatherlink.com 1.10,2013-01-29 05:35:00,
2013-01-29 00:49:00,50.3,50.0,29.97,South,171,5.0,11.0,99,0.00,,,0.00,weatherlink.com 1.10,2013-01-29 05:49:00,
2013-01-29 01:05:00,50.6,50.0,29.96,SSW,195,7.0,10.0,99,0.00,,,0.00,weatherlink.com 1.10,2013-01-29 06:05:00,
2013-01-29 01:19:00,50.9,51.0,29.96,SSW,198,7.0,8.0,99,0.00,,,0.00,weatherlink.com 1.10,2013-01-29 06:19:00,
2013-01-29 01:34:00,51.2,51.0,29.95,South,175,5.0,8.0,99,0.00,,,0.00,weatherlink.com 1.10,2013-01-29 06:34:00,
2013-01-29 01:51:00,51.5,51.0,29.95,SSW,211,6.0,9.0,99,0.00,,,0.00,weatherlink.com 1.10,2013-01-29 06:51:00,
2013-01-29 02:07:00,52.0,52.0,29.94,SW,220,9.0,11.0,99,0.00,,,0.00,weatherlink.com 1.10,2013-01-29 07:07:00,
2013-01-29 02:21:00,52.3,52.0,29.94,SSW,207,6.0,11.0,100,0.00,,,0.00,weatherlink.com 1.10,2013-01-29 07:21:00,
2013-01-29 02:37:00,52.7,53.0,29.94,SSW,207,6.0,15.0,100,0.00,,,0.00,weatherlink.com 1.10,2013-01-29 07:37:00,
2013-01-29 02:52:00,53.0,53.0,29.93,South,190,7.0,15.0,100,0.00,,,0.00,weatherlink.com 1.10,2013-01-29 07:52:00,
2013-01-29 03:06:00,53.2,53.0,29.92,SW,220,4.0,13.0,100,0.00,,,0.00,weatherlink.com 1.10,2013-01-29 08:06:00,
2013-01-29 03:22:00,53.3,53.0,29.92,SW,221,6.0,15.0,100,0.00,,,0.00,weatherlink.com 1.10,2013-01-29 08:22:00,
2013-01-29 03:37:00,53.3,53.0,29.91,SSW,210,15.0,19.0,100,0.00,,,0.00,weatherlink.com 1.10,2013-01-29 08:37:00,
2013-01-29 03:52:00,53.2,53.0,29.90,SW,218,10.0,17.0,100,0.00,,,0.00,weatherlink.com 1.10,2013-01-29 08:52:00,
2013-01-29 04:07:00,53.2,53.0,29.90,SSW,213,10.0,16.0,100,0.00,,,0.00,weatherlink.com 1.10,2013-01-29 09:07:00,
2013-01-29 04:23:00,53.0,53.0,29.89,SSW,202,6.0,16.0,100,0.00,,,0.00,weatherlink.com 1.10,2013-01-29 09:23:00,
2013-01-29 04:39:00,53.1,53.0,29.89,SSW,211,9.0,17.0,100,0.00,,,0.00,weatherlink.com 1.10,2013-01-29 09:39:00,
2013-01-29 04:53:00,53.1,53.0,29.87,South,183,10.0,22.0,100,0.00,,,0.00,weatherlink.com 1.10,2013-01-29 09:53:00,
2013-01-29 05:08:00,53.0,53.0,29.88,SSW,210,10.0,17.0,100,0.00,,,0.00,weatherlink.com 1.10,2013-01-29 10:08:00,
2013-01-29 05:23:00,53.2,53.0,29.87,SW,228,8.0,17.0,99,0.00,,,0.00,weatherlink.com 1.10,2013-01-29 10:23:00,
2013-01-29 05:41:00,53.6,53.0,29.86,South,186,12.0,17.0,98,0.00,,,0.00,weatherlink.com 1.10,2013-01-29 10:41:00,
2013-01-29 05:54:00,53.7,53.0,29.86,WSW,251,9.0,19.0,97,0.00,,,0.00,weatherlink.com 1.10,2013-01-29 10:54:00,
2013-01-29 06:10:00,53.5,52.0,29.86,SSW,204,14.0,17.0,96,0.00,,,0.00,weatherlink.com 1.10,2013-01-29 11:10:00,
2013-01-29 06:24:00,53.8,52.0,29.86,SSW,198,15.0,18.0,95,0.00,,,0.00,weatherlink.com 1.10,2013-01-29 11:24:00,
2013-01-29 06:42:00,53.9,53.0,29.86,SSW,201,11.0,22.0,95,0.00,,,0.00,weatherlink.com 1.10,2013-01-29 11:42:00,
2013-01-29 06:56:00,54.0,53.0,29.86,SW,214,14.0,24.0,95,0.00,,,0.00,weatherlink.com 1.10,2013-01-29 11:56:00,
2013-01-29 07:11:00,54.3,53.0,29.85,SSW,206,13.0,20.0,95,0.00,,,0.00,weatherlink.com 1.10,2013-01-29 12:11:00,
2013-01-29 07:27:00,54.7,54.0,29.85,SSW,209,7.0,21.0,96,0.00,,,0.00,weatherlink.com 1.10,2013-01-29 12:27:00,
2013-01-29 07:41:00,54.8,53.0,29.85,South,188,10.0,21.0,95,0.00,,,0.00,weatherlink.com 1.10,2013-01-29 12:41:00,
2013-01-29 07:57:00,54.8,54.0,29.85,SW,227,16.0,19.0,96,0.00,,,0.00,weatherlink.com 1.10,2013-01-29 12:57:00,
2013-01-29 08:12:00,55.0,54.0,29.84,SW,235,14.0,21.0,95,0.00,,,0.00,weatherlink.com 1.10,2013-01-29 13:12:00,
2013-01-29 08:27:00,55.0,54.0,29.84,SSW,198,9.0,16.0,95,0.00,,,0.00,weatherlink.com 1.10,2013-01-29 13:27:00,
2013-01-29 08:41:00,55.1,54.0,29.85,SSW,213,7.0,19.0,95,0.00,,,0.00,weatherlink.com 1.10,2013-01-29 13:41:00,
2013-01-29 08:58:00,55.1,54.0,29.84,WSW,240,10.0,22.0,95,0.00,,,0.00,weatherlink.com 1.10,2013-01-29 13:58:00,
2013-01-29 09:12:00,55.2,54.0,29.84,SSW,197,17.0,22.0,96,0.00,,,0.00,weatherlink.com 1.10,2013-01-29 14:12:00,
2013-01-29 09:27:00,55.3,54.0,29.83,SSW,207,9.0,17.0,96,0.00,,,0.00,weatherlink.com 1.10,2013-01-29 14:27:00,
2013-01-29 09:42:00,55.6,55.0,29.83,SSW,196,8.0,16.0,96,0.00,,,0.00,weatherlink.com 1.10,2013-01-29 14:42:00,
2013-01-29 09:58:00,55.8,55.0,29.83,South,183,5.0,19.0,96,0.00,,,0.00,weatherlink.com 1.10,2013-01-29 14:58:00,
2013-01-29 10:14:00,56.0,55.0,29.83,SSW,211,3.0,17.0,96,0.00,,,0.00,weatherlink.com 1.10,2013-01-29 15:14:00,
2013-01-29 10:28:00,56.4,55.0,29.83,South,176,10.0,18.0,95,0.00,,,0.00,weatherlink.com 1.10,2013-01-29 15:28:00,
2013-01-29 10:44:00,56.9,55.0,29.84,WSW,240,12.0,19.0,94,0.00,,,0.00,weatherlink.com 1.10,2013-01-29 15:44:00,
2013-01-29 10:59:00,57.2,56.0,29.84,SW,236,13.0,19.0,94,0.00,,,0.00,weatherlink.com 1.10,2013-01-29 15:59:00,
2013-01-29 11:15:00,58.1,56.0,29.84,SSW,207,11.0,15.0,94,0.00,,,0.00,weatherlink.com 1.10,2013-01-29 16:15:00,
2013-01-29 11:30:00,58.6,57.0,29.83,SW,229,14.0,17.0,93,0.00,,,0.00,weatherlink.com 1.10,2013-01-29 16:30:00,
2013-01-29 11:44:00,59.0,57.0,29.82,SW,215,11.0,19.0,92,0.00,,,0.00,weatherlink.com 1.10,2013-01-29 16:44:00,
2013-01-29 12:02:00,59.0,56.0,29.82,SW,218,8.0,20.0,91,0.00,,,0.00,weatherlink.com 1.10,2013-01-29 17:02:00,
2013-01-29 12:17:00,59.3,57.0,29.81,SW,219,9.0,17.0,91,0.00,,,0.00,weatherlink.com 1.10,2013-01-29 17:17:00,
2013-01-29 12:32:00,59.5,57.0,29.80,South,190,11.0,21.0,90,0.00,,,0.00,weatherlink.com 1.10,2013-01-29 17:32:00,
2013-01-29 12:47:00,59.5,57.0,29.80,SSW,213,8.0,22.0,90,0.00,,,0.00,weatherlink.com 1.10,2013-01-29 17:47:00,
2013-01-29 13:01:00,59.3,56.0,29.79,SSW,202,8.0,20.0,90,0.00,,,0.00,weatherlink.com 1.10,2013-01-29 18:01:00,
2013-01-29 13:16:00,59.7,57.0,29.77,SSW,207,7.0,17.0,90,0.00,,,0.00,weatherlink.com 1.10,2013-01-29 18:16:00,
2013-01-29 13:31:00,59.9,57.0,29.76,SW,217,8.0,21.0,90,0.00,,,0.00,weatherlink.com 1.10,2013-01-29 18:31:00,
2013-01-29 13:46:00,60.3,57.0,29.75,SSE,162,14.0,20.0,90,0.00,,,0.00,weatherlink.com 1.10,2013-01-29 18:46:00,
2013-01-29 14:02:00,60.3,57.0,29.75,SW,214,18.0,18.0,89,0.00,,,0.00,weatherlink.com 1.10,2013-01-29 19:02:00,
2013-01-29 14:19:00,60.3,57.0,29.74,SSE,161,6.0,20.0,90,0.00,,,0.00,weatherlink.com 1.10,2013-01-29 19:19:00,
2013-01-29 14:34:00,59.6,57.0,29.74,SW,215,10.0,15.0,90,0.00,,,0.00,weatherlink.com 1.10,2013-01-29 19:34:00,
2013-01-29 14:47:00,59.0,56.0,29.74,SSW,192,10.0,18.0,91,0.00,,,0.00,weatherlink.com 1.10,2013-01-29 19:47:00,
2013-01-29 15:04:00,58.7,56.0,29.73,South,171,5.0,18.0,91,0.00,,,0.00,weatherlink.com 1.10,2013-01-29 20:04:00,
2013-01-29 15:18:00,58.5,56.0,29.73,SSW,201,6.0,22.0,92,0.00,,,0.00,weatherlink.com 1.10,2013-01-29 20:18:00,
2013-01-29 15:34:00,58.7,56.0,29.73,South,174,9.0,18.0,92,0.00,,,0.00,weatherlink.com 1.10,2013-01-29 20:34:00,
2013-01-29 15:49:00,58.9,56.0,29.72,SSW,203,10.0,17.0,91,0.00,,,0.00,weatherlink.com 1.10,2013-01-29 20:49:00,
2013-01-29 16:19:00,59.1,56.0,29.71,SSW,192,7.0,18.0,89,0.00,,,0.00,weatherlink.com 1.10,2013-01-29 21:19:00,
2013-01-29 16:34:00,59.0,56.0,29.70,South,189,13.0,21.0,89,0.00,,,0.00,weatherlink.com 1.10,2013-01-29 21:34:00,
2013-01-29 16:50:00,59.0,56.0,29.70,South,190,16.0,16.0,89,0.00,,,0.00,weatherlink.com 1.10,2013-01-29 21:50:00,
2013-01-29 17:04:00,59.0,56.0,29.69,South,173,17.0,17.0,89,0.00,,,0.00,weatherlink.com 1.10,2013-01-29 22:04:00,
2013-01-29 17:19:00,58.9,56.0,29.69,South,176,9.0,16.0,89,0.00,,,0.00,weatherlink.com 1.10,2013-01-29 22:19:00,
2013-01-29 17:36:00,59.0,56.0,29.68,South,181,6.0,21.0,89,0.00,,,0.00,weatherlink.com 1.10,2013-01-29 22:36:00,
2013-01-29 17:51:00,59.1,56.0,29.67,South,183,16.0,24.0,88,0.00,,,0.00,weatherlink.com 1.10,2013-01-29 22:51:00,
2013-01-29 18:06:00,59.1,56.0,29.67,SSW,194,7.0,22.0,88,0.00,,,0.00,weatherlink.com 1.10,2013-01-29 23:06:00,
2013-01-29 18:20:00,59.0,56.0,29.68,South,181,9.0,18.0,88,0.00,,,0.00,weatherlink.com 1.10,2013-01-29 23:20:00,
2013-01-29 18:36:00,59.0,56.0,29.68,SSW,194,13.0,22.0,89,0.00,,,0.00,weatherlink.com 1.10,2013-01-29 23:36:00,
2013-01-29 18:51:00,59.4,56.0,29.67,SSE,167,14.0,18.0,89,0.00,,,0.00,weatherlink.com 1.10,2013-01-29 23:51:00,
2013-01-29 19:06:00,59.5,56.0,29.66,South,181,6.0,18.0,89,0.00,,,0.00,weatherlink.com 1.10,2013-01-30 00:06:00,
2013-01-29 19:22:00,59.3,56.0,29.65,SSW,204,14.0,15.0,88,0.00,,,0.00,weatherlink.com 1.10,2013-01-30 00:22:00,
2013-01-29 19:37:00,59.0,56.0,29.64,South,190,19.0,20.0,89,0.00,,,0.00,weatherlink.com 1.10,2013-01-30 00:37:00,
2013-01-29 19:52:00,59.3,56.0,29.62,SSW,211,10.0,25.0,89,0.00,,,0.00,weatherlink.com 1.10,2013-01-30 00:52:00,
2013-01-29 20:07:00,59.1,56.0,29.61,SSW,195,8.0,18.0,90,0.00,,,0.00,weatherlink.com 1.10,2013-01-30 01:07:00,
2013-01-29 20:23:00,59.4,56.0,29.60,South,174,12.0,20.0,89,0.00,,,0.00,weatherlink.com 1.10,2013-01-30 01:23:00,
2013-01-29 20:38:00,59.5,56.0,29.59,South,171,7.0,22.0,89,0.00,,,0.00,weatherlink.com 1.10,2013-01-30 01:38:00,
2013-01-29 20:54:00,59.8,57.0,29.57,South,188,14.0,27.0,89,0.00,,,0.00,weatherlink.com 1.10,2013-01-30 01:54:00,
2013-01-29 21:09:00,59.6,56.0,29.56,SSE,163,10.0,24.0,89,0.00,,,0.00,weatherlink.com 1.10,2013-01-30 02:09:00,
2013-01-29 21:23:00,60.0,57.0,29.55,SSW,211,8.0,26.0,89,0.00,,,0.00,weatherlink.com 1.10,2013-01-30 02:23:00,
2013-01-29 21:39:00,60.0,57.0,29.54,SSW,197,15.0,21.0,89,0.00,,,0.00,weatherlink.com 1.10,2013-01-30 02:39:00,
2013-01-29 21:55:00,60.4,57.0,29.52,SSW,202,8.0,26.0,89,0.00,,,0.00,weatherlink.com 1.10,2013-01-30 02:55:00,
2013-01-29 22:09:00,60.7,58.0,29.51,South,185,13.0,26.0,89,0.00,,,0.00,weatherlink.com 1.10,2013-01-30 03:09:00,
2013-01-29 22:24:00,61.0,58.0,29.50,SSW,198,10.0,23.0,88,0.00,,,0.00,weatherlink.com 1.10,2013-01-30 03:24:00,
2013-01-29 22:42:00,60.9,58.0,29.49,SSW,194,13.0,22.0,89,0.00,,,0.00,weatherlink.com 1.10,2013-01-30 03:42:00,
2013-01-29 22:57:00,61.1,58.0,29.47,South,175,12.0,18.0,89,0.00,,,0.00,weatherlink.com 1.10,2013-01-30 03:57:00,
2013-01-29 23:12:00,61.3,58.0,29.45,SW,219,12.0,21.0,89,0.00,,,0.00,weatherlink.com 1.10,2013-01-30 04:12:00,
2013-01-29 23:27:00,61.5,58.0,29.43,SSW,200,7.0,24.0,88,0.00,,,0.00,weatherlink.com 1.10,2013-01-30 04:27:00,
2013-01-29 23:41:00,61.8,58.0,29.43,South,174,22.0,22.0,87,0.00,,,0.00,weatherlink.com 1.10,2013-01-30 04:41:00,
2013-01-29 23:58:00,62.2,58.0,29.41,South,170,18.0,21.0,87,0.00,,,0.00,weatherlink.com 1.10,2013-01-30 04:58:00,